User: anonymous   Login
Location: Bonn
(50.7330°N, 7.1000°E)
Time: 11:09:56
(UTC+01:00)
Language:

Iridium 84 - Orbit

View from above orbital plane
View from above orbital plane
View from above satellite
View from above satellite

Ground track
Ground track

The orbit data is extracted from the following two-line orbital elements,

1 25530U 98066D   16044.50941556  .00000212  00000-0  68743-4 0  9991
2 25530  86.3979 194.6545 0002020  94.3397 265.8030 14.34218685906812
Epoch (UTC): 13 February 2016 12:13:33
Eccentricity: 0.0002020
inclination: 86.3979°
perigee height: 776 km
apogee height: 779 km
right ascension of ascending node: 194.6545°
argument of perigee: 94.3397°
revolutions per day: 14.34218685
mean anomaly at epoch: 265.8030°
orbit number at epoch: 90681

The dashed part of the orbit path shows where the satellite is in the earth's shadow,  

DLR